BLOCK DM-SL R/B, 28138

Orbit data source: Space-Track

BLOCK DM-SL R/B, 28138 is space debris in HEO originally from a launch on Sun, 11 Jan 2004 UTC launched from the Sea Launch (SEAL). Debris objects in space refer to the collection of defunct objects orbiting the Earth. Examples of debris include non-operational satellites, rocket bodies, and fragments generated from explosions, collisions, or faulty payload assembly.

Loading next visibility...
Identifier
28138, 2004-001B
Orbit
HEO
Country
Flag of UnknownUnknown / SEAL
Related business
Manufacturer
RKKE
Mission
Spacecraft
Bus & Motor
BLOK DM2, 11D58M
Mass
~3,210 kg wet, 3,210 kg dry
Launch date (UTC)
2004-01-11 (22 years ago)
Launch vehicle
Unknown
Launch site
Sea Launch (SEAL)
Object type
Payload
Rocket body
Debris
Shape & HBR
Cyl, 3.1 m
Radar Cross Section
23.684 m², Large (>1 m²)

Expand to show TLE details & history
Last TLE update: 1 day ago

TLE from 1 day ago
0 BLOCK DM-SL R/B
1 28138U 04001B   25301.35172728  .00000010  00000-0  24550-3 0  9993
2 28138   0.7828  27.6277 7153209 242.0380  15.7339  2.24736891179003
Epoch: 2025-10-28T08:26Z
TLE epoch observation values (Epoch: 2025-10-28T08:26:29.236Z)
Latitude
-0.331°
Longitude
-163.55974°
Altitude
5,713.19 km
Speed
7.052 km/s
True Right ascension
00h 00m 00s
True Declination
0° 19' 47"
Sunlit
Object was in daylight at epoch
Visualization orbit readout
Latitude
Unknown
Longitude
Unknown
Altitude
Unknown
Speed
Unknown
Apparent Right ascension
Unknown
Apparent Declination
Unknown
Sunlit
N/A
Visualization observer readout
Local Sidereal Time
09:12:59
Azimuth
Unknown
Elevation
Unknown
Doppler factor
Unknown
Orbital elements
Apogee altitude
35,861.842 km
Perigee altitude
632.119 km
Semi-major axis
24,625.118 km
Eccentricity
0.71532
Inclination
0.7828°
RAAN
27.6277°
Arg. of periapsis
242.038°
True anomaly
90.12719°
Mean anomaly
15.7339°
Eccentric anomaly
44.41945°
Mean motion
0.56166 °/min
Orbital period
640.95 mins
BSTAR
0.0002455
Loading maneuver chart data...
Computing Atmospheric mass density...
Loading historical data...
Loading historical data...
Loading historical data...
Loading historical data...
Loading historical data...
Loading historical data...
Loading historical data...
Other satellites on launch #1 in the year 2004 (2004-01-11 UTC)

Documentation

Showing up to 5 results
|